Simultaneous Nadir Overpasses (SNOs) Predictions

Prediction of SNOs between GOES-16 and METOP-C Satellite Orbit:

Table of predicted SNOs for the next 14.0 days since TLE Epoch: 12/9/2023
Index Date Time (GOES-16) GOES-16 Lat,Lon METOP-C Lat,Lon Distance(km) Time Diff (sec)
1 12/10/2023 02:12:03 0.05, -75.20 0.97, -71.12 465.33 80
2 12/11/2023 14:33:35 -0.05, -75.22 0.06, -75.67 51.54 80
3 12/14/2023 02:31:55 0.04, -75.20 0.04, -75.27 7.47 80
4 12/16/2023 14:27:28 -0.03, -75.24 -0.13, -74.84 45.79 80
5 12/18/2023 02:49:06 0.03, -75.22 -0.94, -79.41 478.58 80
6 12/19/2023 02:25:47 0.03, -75.23 0.18, -74.42 91.72 80
7 12/20/2023 14:47:19 -0.02, -75.27 0.83, -78.98 423.59 80
8 12/21/2023 14:23:59 -0.02, -75.28 -0.30, -73.99 147.20 80
9 12/23/2023 02:45:39 0.02, -75.28 -0.71, -78.58 375.87 80
